This demonstration page uses our WeatherBlox Daily Observations layout. Learn more.

Left ArrowRight Arrow

Hourly Observations for May 30, 2017

Temp ( °F °C ) Dew Point ( °F °C ) Humidity (%) Winds ( mph kmh ) Pressure ( in mb ) Visibility ( mi km ) Precip ( " mm )
12:53 am 00:53 Clear 76 24.4 46 7.8 35 35 E 8 13 29.95 1014 10 16 0.00 0.00
1:53 am 01:53 Clear 75 23.9 50 10 41 41 ESE 9 15 29.94 1014 10 16 0.00 0.00
2:53 am 02:53 Clear 73 22.8 54 12.2 51 51 E 6 9 29.94 1014 10 16 0.00 0.00
3:53 am 03:53 Partly Cloudy 69 20.6 51 10.6 53 53 NE 5 7 29.95 1014 10 16 0.00 0.00
4:53 am 04:53 Clear 69 20.6 51 10.6 53 53 E 6 9 29.95 1014 10 16 0.00 0.00
5:53 am 05:53 Clear 69 20.6 54 12.2 59 59 E 10 17 29.94 1014 10 16 0.00 0.00
6:53 am 06:53 Sunny 67 19.4 56 13.3 68 68 E 7 11 29.95 1014 10 16 0.00 0.00
7:53 am 07:53 Sunny 70 21.1 58 14.4 66 66 ENE 7 11 29.98 1015 10 16 0.00 0.00
8:53 am 08:53 Mostly Sunny 73 22.8 60 15.6 64 64 ESE 15 24 29.99 1016 10 16 0.00 0.00
9:53 am 09:53 Sunny 76 24.4 61 16.1 60 60 ESE 15 24 30.00 1016 10 16 0.00 0.00
10:53 am 10:53 Mostly Sunny 78 25.6 61 16.1 56 56 SSE 15 24 29.99 1016 10 16 0.00 0.00
11:53 am 11:53 Mostly Sunny 83 28.3 59 15 44 44 ESE 10 17 29.97 1015 10 16 0.00 0.00
12:53 pm 12:53 Mostly Sunny 85 29.4 56 13.3 37 37 SE 8 13 29.95 1014 10 16 0.00 0.00
1:53 pm 13:53 Mostly Sunny 86 30 52 11.1 31 31 VRB 7 11 29.93 1014 10 16 0.00 0.00
2:04 pm 14:04 Partly Cloudy with Nearby Thunderstorms 86 30 52 11.1 31 31 ESE 15 24 29.85 1011 10 16 0.00 0.00
2:19 pm 14:19 Mostly Sunny 84 28.9 51 10.6 32 32 SE 8 13 29.85 1011 10 16 0.00 0.00
2:53 pm 14:53 Sunny 84 28.9 50 10 31 31 ESE 8 13 29.92 1013 10 16 0.00 0.00
3:00 pm 15:00 Partly Cloudy with Nearby Thunderstorms 84 28.9 50 10 31 31 SE 9 15 29.85 1011 10 16 0.00 0.00
3:16 pm 15:16 Partly Cloudy 84 28.9 50 10 31 31 ESE 12 19 29.85 1011 10 16 0.00 0.00
3:44 pm 15:44 Sunny with Nearby Thunderstorms 83 28.3 51 10.6 33 33 SE 8 13 29.85 1011 10 16 0.00 0.00
3:53 pm 15:53 Sunny 84 28.9 52 11.1 33 33 ESE 12 19 29.91 1013 10 16 0.00 0.00
4:53 pm 16:53 Sunny 85 29.4 52 11.1 32 32 ESE 13 20 29.90 1012 10 16 0.00 0.00
5:53 pm 17:53 Mostly Sunny 85 29.4 50 10 30 30 SE 12 19 29.88 1012 10 16 0.00 0.00
6:53 pm 18:53 Sunny 82 27.8 50 10 33 33 SSE 16 26 29.88 1012 10 16 0.00 0.00
7:53 pm 19:53 Sunny 81 27.2 50 10 34 34 SE 13 20 29.87 1012 10 16 0.00 0.00
8:53 pm 20:53 Clear 79 26.1 50 10 36 36 SE 12 19 29.89 1012 10 16 0.00 0.00
9:53 pm 21:53 Clear 77 25 53 11.7 43 43 SE 9 15 29.91 1013 10 16 0.00 0.00
10:53 pm 22:53 Clear 75 23.9 55 12.8 50 50 SE 8 13 29.92 1013 10 16 0.00 0.00
11:53 pm 23:53 Clear 73 22.8 57 13.9 57 57 SE 12 19 29.93 1014 10 16 0.00 0.00

Powered by AerisWeather